Location: Lake Runnemede Observatory
(43.4843°N, 72.3851°W)
Time: 20:13:38
(UTC-04:00)

Amateur Radio Satellites - All Passes

Search period start: 01 August 2015 19:43
Search period end: 02 August 2015 19:43
Location: Lake Runnemede Observatory, 43.4843°N, 72.3851°W

Satellite Date Start Highest point End Downlink Frequencies (MHz)
Time Altitude Azimuth
COMPASS 1 01 Aug 19:44:20 19:46:48 16° 65° (ENE) 19:49:27 437.405
DOVE 4 01 Aug 19:44:25 19:47:57 28° 69° (ENE) 19:51:33 437.250
BRITE-PL 01 Aug 19:49:30 19:53:54 86° 257° (WSW) 19:58:06 437.365/2234.400
CINEMA 3 01 Aug 19:51:11 19:53:36 16° 64° (ENE) 19:56:14 145.822/145.860
GOMX 1 01 Aug 19:57:48 20:02:00 67° 75° (ENE) 20:06:07 467.674
SEEDS 01 Aug 19:58:59 20:02:33 27° 69° (ENE) 20:06:13 437.485
CUTE 1.7 + AOD 2 01 Aug 20:02:20 20:06:14 36° 71° (ENE) 20:10:13 437.475
CUTE-I 01 Aug 20:03:17 20:05:07 11° 275° (W) 20:06:36 437.470
HO-68 01 Aug 20:05:11 20:12:12 63° 69° (ENE) 20:19:16 435.675
STRAND 1 01 Aug 20:06:49 20:11:58 90° 102° (ESE) 20:17:04 437.568
CANX-2 01 Aug 20:10:33 20:14:41 49° 73° (ENE) 20:18:52 2200.000
Oscar 11 01 Aug 20:10:51 20:12:39 13° 62° (ENE) 20:14:38 145.826/435.025
PRISM 01 Aug 20:17:35 20:21:43 75° 284° (WNW) 20:25:47 437.425
CUBEBUG 2 01 Aug 20:18:37 20:20:55 15° 63° (ENE) 20:23:24 437.445
AAUSAT CUBESAT 2 01 Aug 20:23:48 20:27:34 33° 70° (ENE) 20:31:24 437.432
VERMONT LUNAR 01 Aug 20:28:02 20:31:08 49° 179° (S) 20:34:13 437.305
ISS 01 Aug 20:34:51 20:37:29 23° 137° (SE) 20:40:10 145.825
PHONESAT 2.4 01 Aug 20:50:45 20:53:56 33° 164° (SSE) 20:57:09 2401.200-2431.200
RS-15 01 Aug 21:00:25 21:10:28 47° 111° (ESE) 21:21:00 29.354- 29.394
ZACube-1 01 Aug 21:11:25 21:15:06 31° 69° (ENE) 21:18:56 437.345
COMPASS 1 01 Aug 21:17:59 21:22:06 51° 261° (W) 21:26:15 437.405
DOVE 4 01 Aug 21:22:20 21:25:46 24° 266° (W) 21:29:09 437.250
CINEMA 3 01 Aug 21:26:26 21:30:28 49° 262° (W) 21:34:35 145.822/145.860
FUNcube-1 01 Aug 21:32:24 21:36:27 50° 73° (ENE) 21:40:39 145.935
50 SAT 01 Aug 21:34:02 21:34:27 10° 62° (ENE) 21:35:04 437.505
SEEDS 01 Aug 21:34:37 21:38:19 27° 266° (W) 21:41:58 437.485
UWE-3 01 Aug 21:36:05 21:40:15 75° 77° (ENE) 21:44:34 435.000/436.395/437.385
Cosmos 2499 01 Aug 21:36:57 21:40:34 13° 285° (WNW) 21:43:33 435.465 / 435.565
CUTE 1.7 + AOD 2 01 Aug 21:38:59 21:42:18 21° 268° (W) 21:45:31 437.475
AUBIESAT-1 01 Aug 21:39:27 21:42:20 16° 94° (E) 21:45:21 437.475
GOMX 1 01 Aug 21:39:53 21:40:43 10° 273° (W) 21:41:15 467.674
DELFI C3 01 Aug 21:40:35 21:44:37 72° 76° (ENE) 21:48:42 145.870
Oscar 11 01 Aug 21:43:59 21:48:18 71° 258° (WSW) 21:52:40 145.826/435.025
UKube-1 01 Aug 21:46:30 21:49:47 22° 66° (ENE) 21:53:10 .
STRAND 1 01 Aug 21:48:04 21:50:30 13° 301° (WNW) 21:52:41 437.568
CANX-2 01 Aug 21:48:17 21:50:57 15° 271° (W) 21:53:27 2200.000
HUMSAT D 01 Aug 21:53:00 21:56:47 36° 71° (ENE) 22:00:40 437.325/437.525
CUBEBUG 2 01 Aug 21:53:05 21:57:11 55° 260° (W) 22:01:24 437.445
AISAT 01 Aug 21:54:00 21:56:56 18° 65° (ENE) 22:00:00 437.250
HO-68 01 Aug 21:54:37 22:00:29 26° 268° (W) 22:06:12 435.675
AAUSAT CUBESAT 2 01 Aug 21:59:57 22:03:15 22° 267° (W) 22:06:31 437.432
VERMONT LUNAR 01 Aug 22:04:43 22:07:35 31° 196° (SSW) 22:10:27 437.305
CUBEBUG 1 01 Aug 22:07:02 22:09:11 14° 63° (ENE) 22:11:30 437.445
ISS 01 Aug 22:10:34 22:13:46 49° 334° (NNW) 22:16:57 145.825
AIST 1 01 Aug 22:12:38 22:15:17 16° 68° (ENE) 22:18:04
DX 1 01 Aug 22:14:36 22:18:45 46° 71° (ENE) 22:22:56 434.975-435.025
UNISAT 6 01 Aug 22:20:28 22:23:22 17° 90° (E) 22:26:28 437.425
Cosmos 2491 01 Aug 22:25:28 22:32:59 32° 66° (ENE) 22:40:39 435.465 / 435.565
PHONESAT 2.4 01 Aug 22:28:13 22:31:38 52° 180° (S) 22:35:04 2401.200-2431.200
VELOX 1 01 Aug 22:31:27 22:35:35 40° 70° (ENE) 22:39:44 145.980
BEESAT 3 01 Aug 22:39:17 22:41:47 16° 112° (ESE) 22:44:28 437.485
M-CUBED/EXP-1 PRIME 01 Aug 22:43:54 22:48:45 83° 110° (ESE) 22:53:27 437.505
ESTCUBE 1 01 Aug 22:45:37 22:49:51 41° 71° (ENE) 22:54:07 437.505/2401.250
ZACube-1 01 Aug 22:48:04 22:51:31 24° 267° (W) 22:54:58 437.345
YUBILEINY 01 Aug 22:51:41 22:56:28 17° 77° (ENE) 23:01:48 435.215
DUCHIFAT 1 01 Aug 22:57:33 22:59:31 13° 89° (E) 23:01:40 145.980
QB50P1 01 Aug 23:00:58 23:03:23 15° 90° (E) 23:06:00 145.935-145.965
NANOSAT C BR1 01 Aug 23:01:54 23:04:21 15° 90° (E) 23:06:57 145.865
TIGRISAT 01 Aug 23:02:25 23:06:51 42° 97° (E) 23:11:20 435.000
ANTELSAT 01 Aug 23:04:28 23:08:59 45° 98° (E) 23:13:31 437.575/2403.000
50 SAT 01 Aug 23:04:36 23:08:28 73° 258° (WSW) 23:12:25 437.505
FUNcube-1 01 Aug 23:10:43 23:13:10 15° 271° (W) 23:15:30 145.935
RS-15 01 Aug 23:11:58 23:22:44 57° 315° (NW) 23:33:57 29.354- 29.394
AUBIESAT-1 01 Aug 23:12:45 23:17:28 60° 292° (WNW) 23:22:02 437.475
UKube-1 01 Aug 23:21:43 23:25:44 36° 263° (W) 23:29:44 .
AISAT 01 Aug 23:28:56 23:33:12 47° 261° (W) 23:37:28 437.250
HUMSAT D 01 Aug 23:29:33 23:32:41 20° 268° (W) 23:35:44 437.325/437.525
BEESAT 2 01 Aug 23:36:33 23:40:31 50° 119° (ESE) 23:44:31 435.950
AIST 2 01 Aug 23:38:44 23:40:26 13° 110° (ESE) 23:42:22 435.215
CUBEBUG 1 01 Aug 23:40:45 23:45:05 63° 259° (W) 23:49:24 437.445
POLYITAN 1 01 Aug 23:43:13 23:47:19 44° 99° (E) 23:51:27 437.675
ISS 01 Aug 23:48:12 23:50:43 20° 353° (N) 23:53:15 145.825
AIST 1 01 Aug 23:49:10 23:53:15 44° 267° (W) 23:57:17
DX 1 01 Aug 23:52:22 23:55:17 17° 269° (W) 23:58:03 434.975-435.025
UNISAT 6 01 Aug 23:55:55 00:00:32 55° 287° (WNW) 00:05:07 437.425
POPSAT HIP 1 01 Aug 23:59:54 00:04:10 66° 101° (ESE) 00:08:24 437.405
BUGSAT 1 02 Aug 00:00:23 00:04:13 40° 98° (E) 00:08:06 437.445
PHONESAT 2.4 02 Aug 00:06:08 00:09:20 33° 197° (SSW) 00:12:30 2401.200-2431.200
SWISSCUBE 02 Aug 00:07:05 00:08:23 11° 59° (ENE) 00:09:56 437.505
QB50P2 02 Aug 00:07:45 00:12:03 84° 104° (ESE) 00:16:19 145.880/145.840
VELOX 1 02 Aug 00:09:02 00:12:19 20° 268° (W) 00:15:30 145.980
SPROUT 02 Aug 00:13:53 00:18:10 88° 77° (ENE) 00:22:28 437.525
BEESAT 3 02 Aug 00:15:24 00:19:23 51° 308° (NW) 00:23:24 437.485
M-CUBED/EXP-1 PRIME 02 Aug 00:20:11 00:22:54 15° 304° (NW) 00:25:26 437.505
Cosmos 2491 02 Aug 00:21:55 00:30:27 60° 268° (W) 00:38:54 435.465 / 435.565
TISAT 1 02 Aug 00:22:50 00:26:59 69° 74° (ENE) 00:31:09 437.305
ESTCUBE 1 02 Aug 00:23:26 00:26:54 21° 268° (W) 00:30:16 437.505/2401.250
ITUPSAT 1 02 Aug 00:26:47 00:29:34 16° 62° (ENE) 00:32:31 437.325
DUCHIFAT 1 02 Aug 00:31:33 00:35:44 57° 287° (WNW) 00:39:53 145.980
QB50P1 02 Aug 00:35:28 00:39:36 49° 287° (WNW) 00:43:43 145.935-145.965
NANOSAT C BR1 02 Aug 00:36:23 00:40:30 49° 287° (WNW) 00:44:36 145.865
TIGRISAT 02 Aug 00:39:40 00:43:22 23° 294° (WNW) 00:46:59 435.000
ANTELSAT 02 Aug 00:41:54 00:45:29 21° 294° (WNW) 00:48:57 437.575/2403.000
YUBILEINY 02 Aug 00:43:23 00:52:05 84° 98° (E) 01:00:54 435.215
O/OREOS (USA 219) 02 Aug 01:04:09 01:08:04 31° 105° (ESE) 01:12:05 437.305
AIST 2 02 Aug 01:14:16 01:18:31 71° 305° (NW) 01:22:47 435.215
BEESAT 2 02 Aug 01:15:39 01:18:50 21° 318° (NW) 01:21:59 435.950
POLYITAN 1 02 Aug 01:19:55 01:22:56 18° 295° (WNW) 01:25:50 437.675
BEESAT 02 Aug 01:20:17 01:24:53 49° 71° (ENE) 01:29:32 436.000
ISS 02 Aug 01:25:13 01:27:55 23° 13° (NNE) 01:30:38 145.825
RS-15 02 Aug 01:29:13 01:38:23 27° 347° (NNW) 01:47:47 29.354- 29.394
BUGSAT 1 02 Aug 01:36:35 01:39:26 18° 294° (WNW) 01:42:12 437.445
POPSAT HIP 1 02 Aug 01:37:30 01:39:33 13° 297° (WNW) 01:41:25 437.405
SWISSCUBE 02 Aug 01:40:44 01:45:33 85° 74° (ENE) 01:50:23 437.505
PHONESAT 2.4 02 Aug 01:45:57 01:46:42 10° 211° (SSW) 01:47:20 2401.200-2431.200
QB50P2 02 Aug 01:46:24 01:47:20 10° 299° (WNW) 01:48:04 145.880/145.840
Cosmos 2504 02 Aug 01:55:03 02:00:55 29° 84° (E) 02:07:18 435.465 / 435.565
Oscar 19 02 Aug 01:58:04 02:03:02 45° 98° (E) 02:08:01 437.125/150
KKS-1 02 Aug 02:00:20 02:03:40 22° 66° (ENE) 02:07:07 437.445
ITUPSAT 1 02 Aug 02:02:11 02:06:58 67° 258° (WSW) 02:11:48 437.325
TISAT 1 02 Aug 02:02:18 02:03:18 11° 273° (W) 02:04:02 437.305
Cosmos 2491 02 Aug 02:24:26 02:25:37 10° 287° (WNW) 02:26:02 435.465 / 435.565
YUBILEINY 02 Aug 02:43:32 02:50:14 23° 300° (WNW) 02:56:37 435.215
O/OREOS (USA 219) 02 Aug 02:43:37 02:47:31 28° 304° (WNW) 02:51:24 437.305
AIST 2 02 Aug 02:55:55 02:57:54 13° 326° (NW) 02:59:46 435.215
MOZHAYETS 4 02 Aug 02:58:55 03:00:36 12° 61° (ENE) 03:02:30
BEESAT 02 Aug 02:59:34 03:03:02 19° 269° (W) 03:06:23 436.000
ISS 02 Aug 03:01:27 03:04:43 83° 32° (NNE) 03:07:59 145.825
Gurwin Techsat 1B 02 Aug 03:03:50 03:09:04 56° 100° (E) 03:14:18 435.225
STARS 02 Aug 03:06:33 03:10:52 63° 74° (ENE) 03:15:12 437.465
AO-7 02 Aug 03:12:14 03:16:15 15° 85° (E) 03:20:51 29.400- 29.500
JAS-2 02 Aug 03:18:50 03:26:00 39° 93° (E) 03:33:09 435.910
ITAMSAT 1 02 Aug 03:20:54 03:26:05 70° 102° (ESE) 03:31:15 435.822/435.867
SWISSCUBE 02 Aug 03:22:51 03:24:09 11° 274° (W) 03:25:08 437.505
KKS-1 02 Aug 03:35:57 03:40:06 38° 262° (W) 03:44:15 437.445
Oscar 19 02 Aug 03:37:57 03:42:10 25° 295° (WNW) 03:46:16 437.125/150
Cosmos 2504 02 Aug 03:45:41 03:52:41 54° 285° (WNW) 04:00:13 435.465 / 435.565
RS-15 02 Aug 03:45:53 03:55:35 30° 21° (NNE) 04:05:48 29.354- 29.394
HORYU 2 02 Aug 04:31:56 04:36:20 50° 99° (E) 04:40:44 437.375
MOZHAYETS 4 02 Aug 04:32:34 04:37:13 84° 259° (W) 04:41:54
ISS 02 Aug 04:39:08 04:40:46 13° 228° (SW) 04:42:19 145.825
Gurwin Techsat 1B 02 Aug 04:44:42 04:48:42 21° 297° (WNW) 04:52:33 435.225
DANDE 02 Aug 04:45:44 04:48:54 85° 98° (E) 04:51:36 436.750
STARS 02 Aug 04:45:45 04:47:48 13° 272° (W) 04:49:39 437.465
CUBESAT XI-V 02 Aug 04:54:16 04:57:06 17° 64° (ENE) 05:00:05 437.345
CUSAT 1 02 Aug 04:59:39 05:02:05 26° 284° (WNW) 05:04:22 437.405
ITAMSAT 1 02 Aug 05:01:44 05:05:05 17° 299° (WNW) 05:08:14 435.822/435.867
AO-7 02 Aug 05:02:17 05:10:40 76° 106° (ESE) 05:18:58 29.400- 29.500
JAS-2 02 Aug 05:03:40 05:11:11 51° 292° (WNW) 05:18:34 435.910
GONETS M04 02 Aug 05:26:04 05:33:47 39° 87° (E) 05:41:39
Cubesat XI-IV 02 Aug 05:42:46 05:43:21 10° 85° (E) 05:44:19 437.490
STRAND 1 02 Aug 05:46:34 05:50:11 20° 63° (ENE) 05:53:56 437.568
RS-15 02 Aug 05:59:00 06:10:42 69° 50° (NE) 06:22:53 29.354- 29.394
HORYU 2 02 Aug 06:09:31 06:12:38 18° 296° (WNW) 06:15:37 437.375
Cosmos 2499 02 Aug 06:28:05 06:33:02 20° 79° (E) 06:38:32 435.465 / 435.565
CUBESAT XI-V 02 Aug 06:29:29 06:34:07 60° 260° (W) 06:38:45 437.345
CUTE-I 02 Aug 06:35:02 06:39:48 33° 95° (E) 06:44:36 437.470
JAS-2 02 Aug 06:51:47 06:54:39 12° 311° (NW) 06:57:03 435.910
BEESAT 3 02 Aug 06:55:36 06:58:27 18° 40° (NE) 07:01:21 437.485
AO-7 02 Aug 06:56:00 07:02:48 28° 306° (NW) 07:09:22 29.400- 29.500
PRISM 02 Aug 07:08:14 07:12:27 88° 256° (WSW) 07:16:39 437.425
Cubesat XI-IV 02 Aug 07:19:03 07:24:25 83° 102° (ESE) 07:29:45 437.490
GONETS M04 02 Aug 07:22:08 07:30:31 49° 287° (WNW) 07:38:51
STRAND 1 02 Aug 07:23:57 07:29:00 57° 259° (W) 07:34:05 437.568
BRITE-PL 02 Aug 07:52:33 07:56:12 25° 95° (E) 08:00:08 437.365/2234.400
BEESAT 2 02 Aug 07:54:29 07:58:26 44° 50° (NE) 08:02:19 435.950
AIST 2 02 Aug 07:57:26 08:00:04 16° 37° (NE) 08:02:46 435.215
GOMX 1 02 Aug 07:58:20 08:01:26 18° 92° (E) 08:04:50 467.674
M-CUBED/EXP-1 PRIME 02 Aug 08:00:20 08:02:42 15° 56° (NE) 08:05:18 437.505
RS-15 02 Aug 08:12:04 08:22:41 39° 251° (WSW) 08:33:19 29.354- 29.394
CUTE-I 02 Aug 08:15:07 08:19:53 34° 293° (WNW) 08:24:34 437.470
Cosmos 2499 02 Aug 08:17:44 08:25:12 79° 280° (W) 08:33:19 435.465 / 435.565
PCSat 02 Aug 08:24:22 08:28:55 29° 110° (ESE) 08:33:34 145.827
AUBIESAT-1 02 Aug 08:27:29 08:30:48 23° 60° (ENE) 08:34:21 437.475
BEESAT 3 02 Aug 08:32:46 08:36:46 58° 240° (WSW) 08:40:40 437.485
COMPASS 1 02 Aug 09:00:38 09:03:58 23° 93° (E) 09:07:22 437.405
Cubesat XI-IV 02 Aug 09:00:51 09:03:54 15° 301° (WNW) 09:06:43 437.490
SEEDS 02 Aug 09:17:03 09:21:09 43° 98° (E) 09:25:13 437.485
DOVE 4 02 Aug 09:18:07 09:22:45 72° 102° (ESE) 09:27:39 437.250
HO-68 02 Aug 09:18:59 09:26:04 59° 101° (ESE) 09:33:09 435.675
CINEMA 3 02 Aug 09:19:22 09:23:39 35° 96° (E) 09:28:08 145.822/145.860
UNISAT 6 02 Aug 09:21:08 09:23:52 17° 64° (ENE) 09:26:46 437.425
CUTE 1.7 + AOD 2 02 Aug 09:21:42 09:25:59 62° 100° (E) 09:30:13 437.475
UWE-3 02 Aug 09:25:46 09:28:24 15° 89° (E) 09:31:14 435.000/436.395/437.385
SO-50 02 Aug 09:27:17 09:32:03 76° 121° (ESE) 09:36:58 436.795
CANX-2 02 Aug 09:30:15 09:34:35 86° 103° (ESE) 09:38:52 2200.000
BRITE-PL 02 Aug 09:30:53 09:34:48 32° 289° (WNW) 09:38:55 437.365/2234.400
Oscar 11 02 Aug 09:30:58 09:34:04 19° 91° (E) 09:37:16 145.826/435.025
M-CUBED/EXP-1 PRIME 02 Aug 09:32:52 09:36:55 65° 255° (WSW) 09:41:21 437.505
BEESAT 2 02 Aug 09:33:17 09:36:11 18° 247° (WSW) 09:38:56 435.950
AIST 2 02 Aug 09:34:59 09:39:11 76° 238° (WSW) 09:43:18 435.215
GOMX 1 02 Aug 09:35:29 09:39:50 48° 287° (WNW) 09:44:27 467.674
O/OREOS (USA 219) 02 Aug 09:35:30 09:36:32 11° 45° (NE) 09:37:48 437.305
AAUSAT CUBESAT 2 02 Aug 09:40:30 09:44:38 53° 99° (E) 09:48:44 437.432
CUBEBUG 2 02 Aug 09:42:44 09:46:45 29° 94° (E) 09:50:53 437.445
DUCHIFAT 1 02 Aug 09:51:50 09:53:31 12° 63° (ENE) 09:55:23 145.980
QB50P1 02 Aug 09:55:30 09:57:41 14° 64° (ENE) 10:00:01 145.935-145.965
NANOSAT C BR1 02 Aug 09:56:14 09:58:24 14° 64° (ENE) 10:00:44 145.865
AUBIESAT-1 02 Aug 10:01:27 10:05:16 37° 259° (WSW) 10:09:23 437.475
TIGRISAT 02 Aug 10:02:23 10:06:26 40° 71° (ENE) 10:10:39 435.000
ANTELSAT 02 Aug 10:04:37 10:08:46 44° 71° (ENE) 10:13:03 437.575/2403.000
PCSat 02 Aug 10:06:59 10:12:10 44° 308° (NW) 10:17:22 145.827
Cosmos 2499 02 Aug 10:15:26 10:20:08 16° 305° (NW) 10:24:37 435.465 / 435.565
ZACube-1 02 Aug 10:34:07 10:38:38 59° 100° (E) 10:43:10 437.345
COMPASS 1 02 Aug 10:35:54 10:39:42 32° 290° (WNW) 10:43:25 437.405
POLYITAN 1 02 Aug 10:37:19 10:41:11 38° 71° (ENE) 10:45:08 437.675
50 SAT 02 Aug 10:40:42 10:42:06 12° 88° (E) 10:43:44 437.505
BUGSAT 1 02 Aug 10:51:39 10:55:15 32° 70° (ENE) 10:58:53 437.445
YUBILEINY 02 Aug 10:52:15 11:00:34 45° 72° (ENE) 11:08:58 435.215
DELFI C3 02 Aug 10:53:17 10:57:22 78° 284° (WNW) 11:01:24 145.870
POPSAT HIP 1 02 Aug 10:53:37 10:57:43 57° 74° (ENE) 11:01:52 437.405
SEEDS 02 Aug 10:53:39 10:56:39 18° 294° (WNW) 10:59:30 437.485
FUNcube-1 02 Aug 10:55:14 10:59:48 87° 284° (WNW) 11:04:23 145.935
UNISAT 6 02 Aug 10:55:59 11:00:14 52° 260° (W) 11:04:38 437.425
CINEMA 3 02 Aug 10:56:46 11:00:45 27° 291° (WNW) 11:04:47 145.822/145.860
DOVE 4 02 Aug 10:57:36 11:00:05 14° 296° (WNW) 11:02:26 437.250
CUTE 1.7 + AOD 2 02 Aug 10:59:08 11:01:26 14° 296° (WNW) 11:03:33 437.475
UWE-3 02 Aug 11:00:47 11:05:19 58° 286° (WNW) 11:09:55 435.000/436.395/437.385
QB50P2 02 Aug 11:01:31 11:05:42 73° 75° (ENE) 11:09:56 145.880/145.840
Oscar 11 02 Aug 11:06:20 11:10:28 40° 288° (WNW) 11:14:31 145.826/435.025
HO-68 02 Aug 11:07:20 11:13:27 30° 300° (WNW) 11:19:25 435.675
UKube-1 02 Aug 11:07:48 11:11:40 32° 96° (E) 11:15:33 .
CANX-2 02 Aug 11:09:02 11:09:54 10° 299° (WNW) 11:10:31 2200.000
SO-50 02 Aug 11:09:31 11:13:10 20° 323° (NW) 11:16:49 436.795
HUMSAT D 02 Aug 11:10:49 11:15:07 60° 100° (E) 11:19:24 437.325/437.525
O/OREOS (USA 219) 02 Aug 11:12:17 11:16:53 76° 67° (ENE) 11:21:28 437.305
AAUSAT CUBESAT 2 02 Aug 11:17:19 11:19:50 15° 296° (WNW) 11:22:11 437.432
AISAT 02 Aug 11:18:27 11:22:17 29° 95° (E) 11:26:09 437.250
CUBEBUG 2 02 Aug 11:19:17 11:23:25 32° 291° (WNW) 11:27:33 437.445
DUCHIFAT 1 02 Aug 11:24:41 11:28:50 67° 259° (WSW) 11:33:01 145.980
Cosmos 2491 02 Aug 11:28:36 11:36:08 35° 85° (E) 11:43:49 435.465 / 435.565
QB50P1 02 Aug 11:29:00 11:33:07 57° 260° (W) 11:37:17 145.935-145.965
CUBEBUG 1 02 Aug 11:29:01 11:32:17 21° 93° (E) 11:35:38 437.445
NANOSAT C BR1 02 Aug 11:29:42 11:33:49 57° 260° (W) 11:37:59 145.865
DX 1 02 Aug 11:37:33 11:41:55 75° 104° (ESE) 11:46:15 434.975-435.025
TIGRISAT 02 Aug 11:40:10 11:43:25 20° 269° (W) 11:46:37 435.000
Cosmos 2504 02 Aug 11:40:44 11:42:58 11° 52° (NE) 11:45:52 435.465 / 435.565
Oscar 19 02 Aug 11:41:41 11:42:34 11° 57° (ENE) 11:43:43 437.125/150
ANTELSAT 02 Aug 11:42:45 11:45:50 18° 270° (W) 11:48:51 437.575/2403.000
PCSat 02 Aug 11:55:37 11:57:07 11° 331° (NNW) 11:58:27 145.827
VELOX 1 02 Aug 11:56:42 12:01:07 71° 102° (ESE) 12:05:31 145.980
SPROUT 02 Aug 12:00:48 12:03:01 14° 89° (E) 12:05:26 437.525
ZACube-1 02 Aug 12:11:41 12:14:34 16° 296° (WNW) 12:17:18 437.345
50 SAT 02 Aug 12:13:10 12:17:06 56° 286° (WNW) 12:20:59 437.505
ESTCUBE 1 02 Aug 12:13:28 12:17:59 76° 102° (ESE) 12:22:27 437.505/2401.250
POLYITAN 1 02 Aug 12:14:12 12:17:17 19° 268° (W) 12:20:15 437.675
AIST 1 02 Aug 12:19:12 12:23:33 82° 278° (W) 12:27:54
BUGSAT 1 02 Aug 12:27:43 12:30:49 20° 267° (W) 12:33:50 437.445
POPSAT HIP 1 02 Aug 12:31:58 12:34:02 13° 271° (W) 12:35:53 437.405
FUNcube-1 02 Aug 12:34:25 12:35:28 11° 299° (WNW) 12:36:17 145.935
QB50P2 02 Aug 12:41:44 12:42:12 10° 273° (W) 12:42:23 145.880/145.840
UKube-1 02 Aug 12:44:07 12:47:41 25° 293° (WNW) 12:51:09 .
HUMSAT D 02 Aug 12:47:57 12:50:25 15° 296° (WNW) 12:52:43 437.325/437.525
YUBILEINY 02 Aug 12:49:15 12:57:26 43° 272° (W) 13:05:30 435.215
Gurwin Techsat 1B 02 Aug 12:49:19 12:52:04 15° 59° (ENE) 12:55:02 435.225
O/OREOS (USA 219) 02 Aug 12:54:09 12:55:44 11° 261° (W) 12:57:04 437.305
AISAT 02 Aug 12:55:00 12:58:49 28° 292° (WNW) 13:02:34 437.250
ITAMSAT 1 02 Aug 13:03:03 13:06:16 17° 61° (ENE) 13:09:39 435.822/435.867
CUBEBUG 1 02 Aug 13:04:47 13:08:47 36° 290° (WNW) 13:12:44 437.445
DX 1 02 Aug 13:15:49 13:17:38 12° 299° (WNW) 13:19:14 434.975-435.025
Oscar 19 02 Aug 13:16:01 13:21:06 73° 74° (ENE) 13:26:15 437.125/150
BEESAT 02 Aug 13:21:46 13:23:03 11° 86° (E) 13:24:38 436.000
Cosmos 2491 02 Aug 13:24:09 13:32:42 54° 285° (WNW) 13:41:14 435.465 / 435.565
Cosmos 2504 02 Aug 13:29:18 13:37:30 55° 75° (ENE) 13:45:58 435.465 / 435.565
JAS-2 02 Aug 13:34:10 13:38:18 19° 55° (NE) 13:43:00 435.910
VELOX 1 02 Aug 13:35:03 13:37:10 13° 298° (WNW) 13:39:05 145.980
SPROUT 02 Aug 13:35:17 13:39:30 54° 287° (WNW) 13:43:42 437.525
SWISSCUBE 02 Aug 13:40:49 13:44:13 20° 91° (E) 13:47:45 437.505
TISAT 1 02 Aug 13:41:34 13:45:47 76° 285° (WNW) 13:50:00 437.305
CUSAT 1 02 Aug 13:49:51 13:51:55 13° 70° (ENE) 13:54:30 437.405
ESTCUBE 1 02 Aug 13:52:17 13:54:18 13° 298° (WNW) 13:56:06 437.505/2401.250
ITUPSAT 1 02 Aug 14:01:59 14:06:06 29° 95° (E) 14:10:15 437.325
AO-7 02 Aug 14:11:54 14:18:30 28° 54° (NE) 14:25:18 29.400- 29.500
Gurwin Techsat 1B 02 Aug 14:26:05 14:31:24 85° 256° (WSW) 14:36:47 435.225
ITAMSAT 1 02 Aug 14:40:03 14:45:16 70° 258° (WSW) 14:50:30 435.822/435.867
BEESAT 02 Aug 14:56:48 15:01:36 81° 285° (WNW) 15:06:22 436.000
STARS 02 Aug 14:57:50 14:58:33 10° 87° (E) 14:59:33 437.465
Oscar 19 02 Aug 14:58:20 15:01:08 14° 273° (W) 15:03:39 437.125/150
JAS-2 02 Aug 15:16:11 15:22:22 89° 255° (WSW) 15:29:28 435.910
SWISSCUBE 02 Aug 15:17:46 15:22:22 47° 289° (WNW) 15:26:54 437.505
DANDE 02 Aug 15:20:48 15:24:33 64° 79° (E) 15:29:36 436.750
Cosmos 2504 02 Aug 15:22:00 15:29:28 35° 274° (W) 15:36:53 435.465 / 435.565
KKS-1 02 Aug 15:25:36 15:29:42 35° 97° (E) 15:33:49 437.445
Cosmos 2491 02 Aug 15:29:43 15:32:16 11° 311° (NW) 15:34:09 435.465 / 435.565
CUSAT 1 02 Aug 15:30:21 15:34:33 64° 261° (W) 15:40:09 437.405
HORYU 2 02 Aug 15:31:07 15:35:26 53° 73° (ENE) 15:39:50 437.375
GONETS M04 02 Aug 15:34:45 15:40:43 21° 59° (ENE) 15:47:02
ITUPSAT 1 02 Aug 15:39:44 15:44:02 33° 292° (WNW) 15:48:14 437.325
AO-7 02 Aug 16:02:13 16:10:36 77° 254° (WSW) 16:19:02 29.400- 29.500
Gurwin Techsat 1B 02 Aug 16:11:03 16:12:20 11° 275° (W) 16:13:14 435.225
SO-50 02 Aug 16:18:08 16:21:33 18° 35° (NE) 16:25:02 436.795
MOZHAYETS 4 02 Aug 16:27:18 16:30:47 21° 92° (E) 16:34:21
STARS 02 Aug 16:31:11 16:35:38 77° 284° (WNW) 16:40:04 437.465
BEESAT 02 Aug 16:37:36 16:38:43 11° 302° (WNW) 16:39:35 436.000
KKS-1 02 Aug 17:02:33 17:06:11 24° 293° (WNW) 17:09:42 437.445
Cubesat XI-IV 02 Aug 17:03:59 17:07:58 22° 63° (ENE) 17:12:05 437.490
JAS-2 02 Aug 17:05:09 17:08:47 15° 279° (W) 17:12:15 435.910
DANDE 02 Aug 17:06:39 17:07:40 10° 266° (W) 17:08:26 436.750
HORYU 2 02 Aug 17:09:43 17:12:28 15° 270° (W) 17:15:04 437.375
PCSat 02 Aug 17:10:22 17:15:13 33° 48° (NE) 17:20:07 145.827
GONETS M04 02 Aug 17:30:15 17:39:01 90° 83° (E) 17:47:48
VERMONT LUNAR 02 Aug 17:49:49 17:52:13 20° 157° (SSE) 17:54:39 437.305
SO-50 02 Aug 17:57:50 18:02:50 90° 238° (WSW) 18:07:42 436.795
CUTE-I 02 Aug 17:57:52 18:03:08 62° 72° (ENE) 18:08:26 437.470
AO-7 02 Aug 18:00:10 18:04:58 15° 275° (W) 18:09:12 29.400- 29.500
MOZHAYETS 4 02 Aug 18:03:51 18:08:12 41° 289° (WNW) 18:12:30
Cosmos 2499 02 Aug 18:06:43 18:14:56 44° 71° (ENE) 18:23:21 435.465 / 435.565
HO-68 02 Aug 18:08:01 18:09:09 11° 46° (NE) 18:10:41 435.675
CUBESAT XI-V 02 Aug 18:25:15 18:29:19 30° 95° (E) 18:33:23 437.345
Cubesat XI-IV 02 Aug 18:42:28 18:47:44 55° 260° (W) 18:53:01 437.490
PRISM 02 Aug 18:51:38 18:52:49 11° 88° (E) 18:54:15 437.425
PCSat 02 Aug 18:53:40 18:58:46 42° 247° (WSW) 19:03:48 145.827
BRITE-PL 02 Aug 19:05:10 19:08:58 31° 70° (ENE) 19:12:41 437.365/2234.400
GOMX 1 02 Aug 19:08:33 19:11:33 20° 67° (ENE) 19:14:39 467.674
VERMONT LUNAR 02 Aug 19:25:30 19:28:34 45° 173° (S) 19:31:38 437.305
GONETS M04 02 Aug 19:29:01 19:34:49 19° 281° (W) 19:40:10
STRAND 1 02 Aug 19:33:17 19:38:10 44° 98° (E) 19:43:01 437.568
